Retour au catalogue

COSMOS 2251 DEB

ActifVLEO
NORAD 39546·DEBRIS·🇷🇺 Russia

Lancé Jun 16, 1993 depuis Plesetsk Cosmodrome

Loading…

Prochains Passages (prochaines 24 heures)

TLE

PériméSource: Space-Track

Époque: Sep 4, 2026, 13:35 UTC

1 39546U 93036BUC 26247.56608860  .00004926  00000-0  40670-3 0  9999
2 39546  73.9976 318.7349 0038064  46.8703 313.5655 14.98704013684119

Suivez COSMOS 2251 DEB en temps réel avec AllMySat

Download on the App Store